Mt. Clemens, MI

7:25 PM EDT on August 20, 2017 (GMT -0400)
Selfridge Angb

Weather History for KMTC - November, 2013

Change the Weather History Date:

Thursday, November 28, 2013

  Actual Average Record
Temperature  
Mean Temperature 22 °F -  
Max Temperature 28 °F 41 °F 64 °F (1990)
Min Temperature 17 °F 30 °F 15 °F (2007)
Degree Days  
Heating Degree Days 42    
Moisture  
Dew Point 17 °F    
Average Humidity 77    
Maximum Humidity 90    
Minimum Humidity 61    
Precipitation  
Precipitation 0.00 in - - ()
Sea Level Pressure  
Sea Level Pressure 30.30 in    
Wind  
Wind Speed 7 mph (SW)    
Max Wind Speed 12 mph    
Max Gust Speed -    
Visibility 9 miles    
Events Snow    
Averages and records for this station are not official NWS values.
T = Trace of Precipitation, MM = Missing Value Source: NWS Daily Summary

Daily Weather History Graph

Daily Weather History Graph

Search for Another Location

Airport or City:

Trip Planner

Search our weather history database for the weather conditions in past years. The results will help you decide how hot, cold, wet, or windy it might be!

Date:

Astronomy

Nov. 28, 2013 Rise Set
Actual Time 7:38 AM EST 4:59 PM EST
Civil Twilight 7:07 AM EST 5:31 PM EST
Nautical Twilight 6:32 AM EST 6:06 PM EST
Astronomical Twilight 5:58 AM EST 6:40 PM EST
Moon 2:34 AM EST (11/28) 2:13 PM EST (11/28)
Length of Visible Light 10h 24m
Length of Day
9h 21m
Waning Crescent, 22% of the Moon is Illuminated
Nov 28
Waning Crescent
Dec 2
New
Dec 9
First Quarter
Dec 17
Full
Dec 25
Last Quarter

Hourly Weather History & Observations

Time (EST) Temp. Windchill Dew Point Humidity Pressure Visibility Wind Dir Wind Speed Gust Speed Precip Events Conditions
12:58 AM 18.7 °F 7.0 °F 8.2 °F 64% 30.18 in 10.0 mi West 10.4 mph - N/A   Partly Cloudy
1:58 AM 18.1 °F 5.6 °F 8.1 °F 65% 30.20 in 10.0 mi WNW 11.5 mph - N/A   Clear
2:58 AM 17.6 °F 5.7 °F 8.4 °F 67% 30.23 in 10.0 mi WNW 10.4 mph - N/A   Clear
3:58 AM 17.2 °F 6.0 °F 8.8 °F 69% 30.24 in 10.0 mi West 9.2 mph - N/A   Clear
4:58 AM 17.8 °F 12.5 °F 9.7 °F 71% 30.26 in 10.0 mi NW 3.5 mph - N/A   Overcast
5:58 AM 18.9 °F 10.8 °F 10.6 °F 70% 30.28 in 10.0 mi West 5.8 mph - N/A   Mostly Cloudy
6:58 AM 19.8 °F 14.7 °F 12.0 °F 72% 30.31 in 10.0 mi WSW 3.5 mph - N/A   Clear
7:52 AM 21.2 °F 14.9 °F 12.2 °F 68% 30.29 in 10.0 mi SW 4.6 mph - N/A Snow Light Snow
7:58 AM 20.8 °F 13.2 °F 12.2 °F 69% 30.33 in 10.0 mi SW 5.8 mph - 0.00 in Snow Light Snow
8:07 AM 21.2 °F 14.9 °F 12.2 °F 68% 30.30 in 10.0 mi WSW 4.6 mph - N/A   Mostly Cloudy
8:20 AM 21.2 °F 10.9 °F 14.0 °F 74% 30.30 in 10.0 mi WSW 9.2 mph - N/A Snow Light Snow
8:58 AM 21.7 °F 11.5 °F 15.6 °F 77% 30.35 in 9.0 mi WSW 9.2 mph - 0.00 in Snow Light Snow
9:13 AM 21.2 °F 12.6 °F 15.8 °F 80% 30.31 in 2.5 mi WSW 6.9 mph - N/A Snow Light Snow
9:18 AM 21.2 °F 13.6 °F 17.6 °F 86% 30.32 in 1.5 mi WSW 5.8 mph - N/A Snow Light Snow
9:23 AM 21.2 °F 12.6 °F 17.6 °F 86% 30.32 in 1.5 mi WSW 6.9 mph - N/A Snow Light Snow
9:28 AM 21.2 °F 13.6 °F 17.6 °F 86% 30.32 in 2.5 mi SW 5.8 mph - N/A Snow Light Snow
9:33 AM 21.2 °F 13.6 °F 17.6 °F 86% 30.32 in 5.0 mi SW 5.8 mph - N/A Snow Light Snow
9:58 AM 22.8 °F 16.7 °F 18.5 °F 83% 30.35 in 4.0 mi SSW 4.6 mph - 0.00 in Snow Light Snow
10:33 AM 23.0 °F 18.4 °F 19.4 °F 86% 30.31 in 9.0 mi SSW 3.5 mph - N/A Snow Light Snow
10:43 AM 23.0 °F 18.4 °F 19.4 °F 86% 30.31 in 8.0 mi South 3.5 mph - N/A Snow Light Snow
10:58 AM 23.2 °F 18.7 °F 19.0 °F 84% 30.34 in 7.0 mi South 3.5 mph - 0.00 in Snow Light Snow
11:18 AM 23.0 °F 18.4 °F 19.4 °F 86% 30.29 in 10.0 mi South 3.5 mph - N/A Snow Light Snow
11:38 AM 24.8 °F 19.1 °F 19.4 °F 80% 30.28 in 10.0 mi South 4.6 mph - N/A   Overcast
11:39 AM 24.8 °F 19.1 °F 19.4 °F 80% 30.28 in 10.0 mi South 4.6 mph - N/A   Light Freezing Drizzle
11:58 AM 24.6 °F 18.8 °F 20.1 °F 83% 30.31 in 10.0 mi South 4.6 mph - 0.00 in   Light Freezing Drizzle
12:03 PM 24.8 °F 17.9 °F 19.4 °F 80% 30.27 in 10.0 mi South 5.8 mph - N/A   Light Freezing Drizzle
12:08 PM 24.8 °F 16.9 °F 19.4 °F 80% 30.27 in 10.0 mi South 6.9 mph - N/A   Light Freezing Drizzle
12:09 PM 24.8 °F 16.1 °F 19.4 °F 80% 30.27 in 10.0 mi South 8.1 mph - N/A   Overcast
12:14 PM 24.8 °F 16.9 °F 21.2 °F 86% 30.27 in 10.0 mi South 6.9 mph - N/A   Overcast
12:19 PM 26.6 °F 18.2 °F 21.2 °F 80% 30.26 in 10.0 mi South 8.1 mph - N/A   Overcast
12:24 PM 26.6 °F 18.2 °F 21.2 °F 80% 30.26 in 10.0 mi South 8.1 mph - N/A   Overcast
12:29 PM 26.6 °F 16.8 °F 21.2 °F 80% 30.26 in 10.0 mi South 10.4 mph - N/A   Overcast
12:34 PM 26.6 °F 17.5 °F 21.2 °F 80% 30.26 in 10.0 mi South 9.2 mph - N/A   Overcast
12:44 PM 26.6 °F 17.5 °F 21.2 °F 80% 30.26 in 10.0 mi South 9.2 mph - N/A   Overcast
12:58 PM 25.9 °F 16.6 °F 20.5 °F 80% 30.29 in 10.0 mi South 9.2 mph - 0.00 in   Overcast
1:58 PM 27.0 °F 19.5 °F 21.9 °F 81% 30.27 in 10.0 mi South 6.9 mph - N/A   Overcast
2:13 PM 28.4 °F 21.2 °F 23.0 °F 80% 30.23 in 10.0 mi South 6.9 mph - N/A   Overcast
2:18 PM 28.4 °F 19.7 °F 23.0 °F 80% 30.23 in 10.0 mi South 9.2 mph - N/A   Overcast
2:48 PM 28.4 °F 21.2 °F 21.2 °F 74% 30.23 in 10.0 mi South 6.9 mph - N/A   Mostly Cloudy
2:58 PM 28.0 °F 20.0 °F 20.3 °F 73% 30.27 in 10.0 mi South 8.1 mph - N/A   Mostly Cloudy
3:08 PM 28.4 °F 21.2 °F 21.2 °F 74% 30.23 in 10.0 mi South 6.9 mph - N/A   Mostly Cloudy
3:58 PM 28.2 °F 21.0 °F 20.3 °F 72% 30.29 in 10.0 mi SSW 6.9 mph - N/A   Mostly Cloudy
4:58 PM 28.0 °F 20.8 °F 17.1 °F 63% 30.31 in 10.0 mi WSW 6.9 mph - N/A   Overcast
5:58 PM 27.5 °F 21.1 °F 15.8 °F 61% 30.34 in 10.0 mi SW 5.8 mph - N/A   Overcast
6:58 PM 27.0 °F 21.6 °F 15.1 °F 61% 30.37 in 10.0 mi WSW 4.6 mph - N/A   Overcast
7:58 PM 24.6 °F 18.8 °F 14.5 °F 66% 30.38 in 10.0 mi WSW 4.6 mph - N/A   Scattered Clouds
8:58 PM 24.4 °F 20.1 °F 14.2 °F 65% 30.38 in 10.0 mi WSW 3.5 mph - N/A   Clear
9:58 PM 22.1 °F - 14.7 °F 73% 30.40 in 10.0 mi West 2.3 mph - N/A   Partly Cloudy
10:58 PM 17.2 °F - 14.0 °F 87% 30.41 in 10.0 mi Calm Calm - N/A   Partly Cloudy
11:58 PM 18.0 °F - 15.4 °F 90% 30.44 in 10.0 mi Calm Calm - N/A   Mostly Cloudy